N4469W KVGT-KHND

Flight info

Callsign N4469W
Flight time 0h 8m
Altitude VFR
Route
Aircraft BE36/L-VGD/C

Departure

Time 2026-05-04 00:40
Airport North Las Vegas Airport (KVGT)

Arrival

Time 2026-05-04 00:48
Airport Henderson Executive Airport (KHND)
Time Latitude Longitude Altitude Speed Heading
2026-05-04 00:39 36.15170 -115.36064 4476 ft 151 kts 187°
2026-05-04 00:40 36.14130 -115.36065 4478 ft 148 kts 186°
2026-05-04 00:40 36.13107 -115.36042 4488 ft 148 kts 182°
2026-05-04 00:40 36.12080 -115.36023 4508 ft 144 kts 181°
2026-05-04 00:40 36.11060 -115.36011 4498 ft 148 kts 182°
2026-05-04 00:41 36.10032 -115.35997 4494 ft 147 kts 182°
2026-05-04 00:41 36.09023 -115.35975 4491 ft 145 kts 184°
2026-05-04 00:41 36.08020 -115.35953 4495 ft 141 kts 184°
2026-05-04 00:41 36.07043 -115.35933 4457 ft 143 kts 186°
2026-05-04 00:42 36.06000 -115.35944 4275 ft 157 kts 181°
2026-05-04 00:42 36.04905 -115.35922 4094 ft 158 kts 182°
2026-05-04 00:42 36.03792 -115.35892 3994 ft 161 kts 181°
2026-05-04 00:42 36.02697 -115.35796 3982 ft 154 kts 175°
2026-05-04 00:43 36.01647 -115.35682 3986 ft 150 kts 177°
2026-05-04 00:43 36.00608 -115.35571 4000 ft 145 kts 179°
2026-05-04 00:43 35.99652 -115.35468 4229 ft 132 kts 176°
2026-05-04 00:43 35.98784 -115.35232 4450 ft 132 kts 152°
2026-05-04 00:44 35.98328 -115.34212 4655 ft 150 kts 108°
2026-05-04 00:44 35.98492 -115.32909 4866 ft 153 kts 86°
2026-05-04 00:44 35.98686 -115.31663 5108 ft 145 kts 87°
2026-05-04 00:44 35.98871 -115.30458 5381 ft 140 kts 88°
2026-05-04 00:45 35.99055 -115.29283 5525 ft 143 kts 86°
2026-05-04 00:45 35.99249 -115.28007 5533 ft 158 kts 87°
2026-05-04 00:45 35.99450 -115.26663 5546 ft 164 kts 90°
2026-05-04 00:45 35.99645 -115.25257 5546 ft 167 kts 87°
2026-05-04 00:46 35.99867 -115.23827 5362 ft 177 kts 83°
2026-05-04 00:46 36.00189 -115.22321 5173 ft 186 kts 83°
2026-05-04 00:46 36.00426 -115.20783 5052 ft 180 kts 92°
2026-05-04 00:46 36.00462 -115.19222 4782 ft 183 kts 97°
2026-05-04 00:47 36.00478 -115.17568 4122 ft 202 kts 97°
2026-05-04 00:47 36.00429 -115.15879 3791 ft 191 kts 103°
2026-05-04 00:47 36.00118 -115.14381 3381 ft 160 kts 135°
2026-05-04 00:47 35.99352 -115.13625 2816 ft 131 kts 169°
2026-05-04 00:48 35.98575 -115.13493 2562 ft 102 kts 195°
2026-05-04 00:48 35.97912 -115.13527 2440 ft 86 kts 185°
2026-05-04 00:48 35.97412 -115.13537 2442 ft 45 kts 180°
2026-05-04 00:48 35.97218 -115.13546 2446 ft 24 kts 179°
2026-05-04 00:49 35.97100 -115.13578 2454 ft 14 kts 241°
2026-05-04 00:49 35.97095 -115.13686 2452 ft 12 kts 294°
2026-05-04 00:49 35.97202 -115.13696 2449 ft 20 kts 358°
2026-05-04 00:49 35.97368 -115.13696 2444 ft 28 kts
2026-05-04 00:50 35.97579 -115.13694 2435 ft 32 kts
2026-05-04 00:50 35.97667 -115.13820 2432 ft 17 kts 340°
2026-05-04 00:50 35.97720 -115.13824 2430 ft 0 kts